PDT,Max TemperatureF,Mean TemperatureF,Min TemperatureF,Max Dew PointF,MeanDew PointF,Min DewpointF,Max Humidity, Mean Humidity, Min Humidity, Max Sea Level PressureIn, Mean Sea Level PressureIn, Min Sea Level PressureIn, Max VisibilityMiles, Mean VisibilityMiles, Min VisibilityMiles, Max Wind SpeedMPH, Mean Wind SpeedMPH, Max Gust SpeedMPH,PrecipitationIn, CloudCover, Events, WindDirDegrees
2013-7-1,88,74,60,62,58,55,90,66,42,29.88,29.86,29.85,10,10,10,17,5,18,0.00,0,,294
2013-7-2,88,75,61,62,58,56,84,62,40,29.96,29.91,29.86,10,10,10,18,8,23,0.00,0,,316
2013-7-3,86,73,60,62,58,56,90,67,43,29.94,29.88,29.80,10,10,8,16,7,24,0.00,2,,320
2013-7-4,85,74,62,62,58,53,78,63,47,29.81,29.78,29.73,10,10,9,14,6,21,0.00,0,,285
2013-7-5,67,62,57,54,53,52,80,72,63,29.86,29.81,29.77,10,9,8,21,12,24,0.00,3,,267
2013-7-6,72,65,58,54,53,52,86,70,53,29.85,29.81,29.77,10,10,9,16,9,29,0.00,3,,283
2013-7-7,74,66,57,56,54,52,86,70,53,29.90,29.84,29.80,10,10,9,17,8,22,0.00,3,,327
2013-7-8,76,67,57,57,54,53,86,68,49,30.01,29.95,29.88,10,10,10,16,6,20,0.00,4,,320
2013-7-9,81,68,55,59,56,53,100,74,48,30.07,30.01,29.96,10,8,4,14,6,17,0.00,2,,307
2013-7-10,74,65,56,56,54,52,93,73,53,30.02,29.99,29.94,10,10,10,21,9,25,0.00,4,,317
2013-7-11,69,63,56,54,53,52,93,76,59,30.00,29.96,29.91,10,10,10,17,8,21,0.00,5,,304
2013-7-12,71,64,56,55,53,51,86,70,53,29.98,29.95,29.92,10,10,10,18,8,22,0.00,3,,296
2013-7-13,78,66,54,56,52,50,86,63,40,30.00,29.97,29.94,10,10,10,18,7,35,0.00,0,,327
2013-7-14,70,63,55,54,53,52,93,75,57,30.04,29.99,29.94,10,10,9,18,9,23,0.00,4,,315
2013-7-15,68,62,55,54,53,52,86,73,59,29.97,29.93,29.87,10,10,10,17,9,22,0.00,5,,299
2013-7-16,71,65,58,55,53,51,80,69,57,30.07,29.99,29.88,10,10,10,18,11,23,0.00,6,,275
2013-7-17,69,63,57,55,54,53,86,75,63,30.14,30.10,30.04,10,10,10,15,8,18,0.00,5,,288
2013-7-18,75,65,55,57,54,53,93,75,57,30.11,30.05,29.99,10,10,10,18,7,21,0.00,4,,302
2013-7-19,75,66,56,56,54,53,86,70,53,29.99,29.94,29.88,10,10,9,18,8,22,0.00,4,,299
2013-7-20,75,65,55,56,54,52,93,73,53,29.90,29.85,29.79,10,10,9,18,8,21,0.00,4,,304
2013-7-21,72,64,56,56,54,52,93,73,53,29.92,29.84,29.80,10,10,9,16,9,21,0.00,4,,331
2013-7-22,73,65,56,58,56,53,93,77,61,29.99,29.95,29.89,10,10,8,14,7,17,0.00,4,,323
2013-7-23,76,68,59,59,56,55,87,69,50,30.03,30.01,29.98,10,10,10,16,7,24,0.00,0,,317
2013-7-24,80,69,57,59,56,55,93,69,45,30.02,29.99,29.94,10,10,10,14,7,18,0.00,0,,296
2013-7-25,77,66,55,56,54,53,93,70,46,30.07,30.01,29.97,10,10,10,15,8,17,0.00,2,,309
2013-7-26,73,65,56,57,55,53,93,75,57,30.14,30.08,30.03,10,10,10,18,8,23,0.00,4,,317
2013-7-27,72,64,56,57,55,54,100,79,57,30.06,29.98,29.89,10,10,8,17,8,23,0.00,5,,327
2013-7-28,70,63,56,56,55,53,93,75,57,29.91,29.88,29.84,10,10,9,17,9,21,0.00,5,,314
2013-7-29,71,64,56,55,54,52,86,72,57,30.05,29.96,29.86,10,10,6,20,9,30,0.00,4,,289
2013-7-30,72,64,56,55,54,53,93,75,57,30.13,30.09,30.06,10,9,7,18,8,22,0.00,4,,327
2013-7-31,72,64,56,55,54,53,93,75,57,30.13,30.10,30.06,10,10,10,17,8,23,0.00,5,,288